{"data":{"norad_id":48948,"intl_designator":"2021-059BX","name":"HAWK-3C","alt_names":[],"object_type":"PAYLOAD","status":"ACTIVE","operator":null,"country":"US","launch_date":"2021-06-30","launch_site_code":"AFETR","launch_vehicle":null,"mission":null,"orbit_class":"UNKNOWN","rcs_meters":null,"size_class":null,"mass_kg":null,"dimensions":null,"purposes":["tech_demo"],"wikipedia_slug":null,"has_3d_model":false,"image_url":null,"decayed_at":null,"tle_current":{"epoch":"2026-05-25T02:27:37.867968Z","epoch_age_seconds":59413,"freshness":"FRESH","line1":"1 48948U 21059BX  26145.10252162  .00039903  00000+0  36850-3 0  9995","line2":"2 48948  97.6812 345.3082 0005844  65.2539 294.9329 15.67466887274238","mean_motion":15.67466887,"eccentricity":0.0005844,"inclination_deg":97.6812,"raan_deg":345.3082,"arg_perigee_deg":65.2539,"mean_anomaly_deg":294.9329,"bstar":0.0003685,"rev_number":27423,"period_min":91.867969393346,"perigee_km":362.21197152616,"apogee_km":370.09469806947,"semimajor_km":6744.2903347978,"source":"CELESTRAK","updated_at":"2026-05-25T13:38:24.927012Z"}}}